RADUGA 18 [-]

Last updated on July 6, 2021, 3:35 p.m. UTC

1 16497U 86007A   21186.98263589  .00000035  00000-0  00000+0 0  9993
2 16497  13.4027 334.7766 0075392 153.5051  32.8163  0.98811095128058
UTC
Height (km)
Latitude
Longitude
Inclination
Orbital Period
UTC large
Height (km)
Speed (km/s)
/
Latitude / Longitude
Inclination (degrees)
Orbital Period (minutes)
Azimuth
Elevation
Range (km)
Doppler Factor
iOS Compass Heading
iOS Angle